Regional Weather Roundup
Issued by NWS

Home | Current Version | Previous Version | Graphics & Text | Print | Product List | Glossary On
Versions: 1 2 3 4 5 6 7 8 9 10 11 12 13 14 15 16 17 18 19 20 21 22 23 24 25 26 27 28 29 30 31 32 33 34 35 36 37 38 39 40 41 42 43 44 45 46 47 48 49 50
000
ASUS43 KMPX 041110
RWRMN
WEATHER ROUNDUP FOR MINNESOTA
NATIONAL WEATHER SERVICE TWIN CITIES/CHANHASSEN MN
500 AM CST SUN DEC 04 2016


NOTE: "FAIR" INDICATES FEW OR NO CLOUDS BELOW 12,000 FEET WITH NO
SIGNIFICANT WEATHER AND/OR OBSTRUCTIONS TO VISIBILITY. N/A MEANS
CURRENT SKY AND/OR WEATHER CONDITIONS ARE NOT AVAILABLE.

MNZ060>063-068>070-041200-
   Twin Cities Metro

CITY           SKY/WX    TMP DP  RH WIND       PRES   REMARKS
TWIN CITIES    LGT SNOW  32  29  88 SE10      29.99F FOG     WCI  24
ST PAUL        LGT SNOW  32  32 100 SE12      30.01F FOG     WCI  23
CRYSTAL        LGT SNOW  32  28  85 SE8       29.97F FOG     WCI  25
BLAINE         LGT SNOW  34  34 100 SE9       29.98F WCI  26
LAKEVILLE      LGT SNOW  30  30 100 SE5       29.98F WCI  25
EDEN PRAIRIE   LGT SNOW  33  31  92 SE9       29.96F FOG     WCI  25
SOUTH ST PAUL  LGT SNOW  32  32  99 SE6       30.00F WCI  26
LAKE ELMO      LGT SNOW  32  32 100 SE6       30.01F WCI  26
$$
MNZ001>005-007-008-013>017-022>024-027-028-041200-
   Northwest Minnesota

CITY           SKY/WX    TMP DP  RH WIND       PRES   REMARKS
BEMIDJI        CLOUDY    29  28  97 SE13G18   29.85F FOG     WCI  18
HALLOCK        CLOUDY    34  34 100 SE15      29.75F FOG     WCI  24
ROSEAU         CLOUDY    32  27  80 SE12      29.81F WCI  23
WARROAD        CLOUDY    30  27  86 SE10      29.83F WCI  21
THIEF RVR FALL CLOUDY    32  30  92 SE14      29.79F WCI  22
CROOKSTON      CLOUDY    34  34 100 S15       29.78F FOG     WCI  24
FOSSTON        CLOUDY    30  28  93 SE10G17   29.81F WCI  21
DETROIT LAKES  CLOUDY    34  32  93 S13       29.82F FOG     WCI  25
MOORHEAD       CLOUDY    34  30  86 S20       29.80F FOG     WCI  22
PARK RAPIDS    CLOUDY    31  27  85 SE15      29.85F FOG     WCI  20
$$
MNZ006-009>011-018-025>026-041200-
   North Central Minnesota

CITY           SKY/WX    TMP DP  RH WIND       PRES   REMARKS
BAUDETTE       CLOUDY    27  24  89 SE12      29.86F WCI  17
FLAG ISLAND    CLOUDY    28  27  93 SE16      29.85F WCI  17
INTL FALLS     CLOUDY    26  24  92 SE8       29.93F FOG     WCI  18
WASKISH        CLOUDY    28  27  93 SE8       29.87F WCI  20
BIG FORK       LGT SNOW  28  25  86 SE7       29.92F WCI  21
LONGVILLE      CLOUDY    28  27  93 SE5       29.89F WCI  23
GRAND RAPIDS   LGT SNOW  26  25  96 SE8       29.94F FOG     WCI  18
CRANE LAKE     LGT SNOW  25  23  93 CALM      29.99F
ORR            LGT SNOW  25  21  86 SE7       29.94F WCI  17
COOK           LGT SNOW  27  25  93 SE5       29.96F WCI  21
$$
MNZ012-019>021-037-041200-
   Northeast Minnesota

CITY           SKY/WX    TMP DP  RH WIND       PRES   REMARKS
DULUTH         LGT SNOW  27  25  92 SE13      29.99F FOG     WCI  16
ELY            LGT SNOW  25  23  93 SE7       29.99F WCI  17
HIBBING        LGT SNOW  25  23  92 SE9       29.96F FOG     WCI  15
EVELETH        LGT SNOW  27  25  93 SE6       29.98F WCI  21
DULUTH HARBOR  LGT SNOW  28  27  93 CALM      30.05F
TWO HARBORS    MIX PCPN  30  27  86 SE5       30.01F WCI  25
SILVER BAY     FLURRIES  28  27  93 CALM      30.02F
GRAND MARAIS     N/A     35  25  66 S10       30.07F WCI  27
G MARAIS ARPRT CLOUDY    27  19  74 SE6       30.02F WCI  20
$$
MNZ029>031-032-039>041-046>048-054>057-064-041200-
   West Central Minnesota

CITY           SKY/WX    TMP DP  RH WIND       PRES   REMARKS
FERGUS FALLS   CLOUDY    34  34 100 S15       29.87F WCI  24
WHEATON        CLOUDY   N/A N/A N/A SE13      29.84F HAZE
MORRIS         MOCLDY    34  32  93 S13       29.85F FOG     WCI  25
ALEXANDRIA     CLOUDY    33  33 100 S13       29.86F FOG     WCI  24
ELBOW LAKE     CLOUDY    32  32  99 S14       29.85F WCI  22
WADENA         LGT RAIN  30  30 100 SE9       29.85F WCI  22
GLENWOOD       CLOUDY    32  32 100 S14       29.88F FOG     WCI  22
APPLETON       CLOUDY    36  32  87 S8        29.87F
BENSON         CLOUDY    34  32  93 S8        29.88F WCI  27
ORTONVILLE     DRIZZLE   34  30  86 CALM      29.84F
MADISON        CLOUDY    37  36  93 S8        29.86F FOG
WILLMAR        CLOUDY    34  34 100 S9        29.91F FOG     WCI  26
$$
MNZ033>034-036-042>043-049>051-058-059-041200-
   Central Minnesota

CITY           SKY/WX    TMP DP  RH WIND       PRES   REMARKS
ST CLOUD       CLOUDY    31  31 100 SE9       29.94F FOG     WCI  23
PAYNESVILLE    CLOUDY    33  33 100 S8        29.91F FOG     WCI  25
AITKIN         LGT SNOW  30  27  86 SE7       29.92F WCI  23
PINE RIVER     CLOUDY    28  28 100 SE9       29.93F FOG     WCI  20
BRAINERD       CLOUDY    29  28  96 SE9       29.91F FOG     WCI  20
STAPLES        CLOUDY    28  28 100 SE8       29.88F WCI  20
LONG PRAIRIE   CLOUDY    32  32 100 SE12      29.89F FOG     WCI  23
LITTLE FALLS   LGT SNOW  32  30  93 SE10      29.91F WCI  24
LITCHFIELD     CLOUDY    34  34 100 SE8       29.93F WCI  27
BUFFALO        FLURRIES  32  31  95 SE8       29.96F WCI  25
MAPLE LAKE     LGT SNOW  33  33  98 SE8       29.95F WCI  26
$$
MNZ037-044-045-052-053-041200-
   East Central Minnesota

CITY           SKY/WX    TMP DP  RH WIND       PRES   REMARKS
PRINCETON      FLURRIES  32  30  93 SE9       29.96F WCI  24
MORA           LGT SNOW  30  28  93 SE7       29.99F WCI  23
CAMBRIDGE      LGT SNOW  32  28  86 SE7       29.96F WCI  26
RUSH CITY      CLOUDY    30  28  93 SE7       29.99F WCI  23
MOOSE LAKE     LGT SNOW  30  27  86 SE3       29.97F
HINCKLEY       LGT SNOW  30  30 100 SE5       29.99F WCI  25
CLOQUET        LGT SNOW  27  25  93 SE5       29.98F WCI  21
MCGREGOR       CLOUDY    30  28  93 SE9       29.95F VSB 1   WCI  22
$$
MNZ071>073-080-081-089-090-097-098-041200-
   Southwest Minnesota

CITY           SKY/WX    TMP DP  RH WIND       PRES   REMARKS
MONTEVIDEO     CLOUDY    34  34 100 SW7       29.90F WCI  28
GRANITE FALLS  CLOUDY    37  35  93 S8        29.91F
CANBY          CLOUDY    36  32  87 SW3       29.87F
MARSHALL       CLOUDY    34  32  92 S13       29.88F WCI  25
REDWOOD FALLS  CLOUDY    35  33  92 S9        29.92F WCI  28
OLIVIA         CLOUDY    34  32  93 S9        29.91F WCI  26
PIPESTONE      CLOUDY    34  34 100 SW10      29.87F FOG     WCI  26
WINDOM         CLOUDY    34  34 100 CALM      29.91F FOG
WORTHINGTON    CLOUDY    33  32  96 SW13      29.91F FOG     WCI  24
JACKSON        CLOUDY    32  32 100 S10       29.93F FOG     WCI  24
TRACY          CLOUDY    35  33  94 SW10      29.90F WCI  27
SLAYTON        CLOUDY    32  32  99 SW12      29.90F WCI  23
$$
MNZ065>067-074>077-082>085-091>093-041200-
   South Central Minnesota

CITY           SKY/WX    TMP DP  RH WIND       PRES   REMARKS
MANKATO        LGT SNOW  33  32  96 S12       29.96F FOG     WCI  24
NEW ULM        CLOUDY    34  34 100 S9        29.94F FOG     WCI  26
ST JAMES       CLOUDY    34  34 100 SE12      29.95F FOG     WCI  25
FAIRMONT       CLOUDY    33  32  96 S13       29.95F FOG     WCI  24
GLENCOE        LGT SNOW  33  33 100 SE7       29.95F WCI  27
FARIBAULT      MIX PCPN  34  32  93 SE8       29.98F WCI  27
OWATONNA       LGT SNOW  34  30  86 SE12      29.97F WCI  25
WASECA         LGT SNOW  32  32 100 SE12      29.97F WCI  23
ALBERT LEA     LGT SNOW  36  36 100 S12       29.97F
$$
MNZ078>079-086>088-094>096-041200-
   Southeast Minnesota

CITY           SKY/WX    TMP DP  RH WIND       PRES   REMARKS
ROCHESTER      LGT SNOW  32  31  96 SE15      30.00F VSB 1   WCI  22
RED WING       LGT SNOW  34  30  86 SE9       30.01F WCI  26
STANTON        LGT SNOW  34  32  92 SE7       29.98F WCI  28
DODGE CENTER   LGT SNOW  30  30 100 SE13      29.98F WCI  20
WINONA         LGT SNOW  34  32  93 SE6       30.07F WCI  29
AUSTIN         LGT SNOW  32  30  93 SE7       29.98F WCI  26
PRESTON        LGT SNOW  31  29  95 SE8       30.02F WCI  23
$$
ABBREVIATIONS USED IN REMARKS
   TC - TEMPERATURES IN CELSIUS
  WCI - WIND CHILL INDEX
   HX - HEAT INDEX
  VSB - VISIBILITY
$$




USA.gov is the U.S. government's official web portal to all federal, state and local government web resources and services.